Time,TemperatureF,DewpointF,PressureIn,WindDirection,WindDirectionDegrees,WindSpeedMPH,WindSpeedGustMPH,Humidity,HourlyPrecipIn,Conditions,Clouds,dailyrainin,SoftwareType,DateUTC
2013-06-02 00:00:00,75.0,64.0,29.91,SSW,205,7.0,16.0,69,-99.99,,,-99.99,,2013-06-02 04:00:00,
2013-06-02 00:23:00,75.0,64.0,29.91,SSW,205,7.0,16.0,69,-99.99,,,-99.99,,2013-06-02 04:23:00,
2013-06-02 00:33:00,75.0,64.0,29.91,SSW,205,7.0,16.0,69,-99.99,,,-99.99,,2013-06-02 04:33:00,
2013-06-02 00:42:00,75.0,64.0,29.91,SSW,205,7.0,16.0,69,-99.99,,,-99.99,,2013-06-02 04:42:00,
2013-06-02 00:53:00,75.0,64.0,29.91,SSW,205,7.0,16.0,69,-99.99,,,-99.99,,2013-06-02 04:53:00,
2013-06-02 01:00:00,75.0,65.0,29.91,SSW,209,12.0,15.0,71,-99.99,,,-99.99,,2013-06-02 05:00:00,
2013-06-02 01:32:00,75.0,65.0,29.91,SSW,209,12.0,15.0,71,-99.99,,,-99.99,,2013-06-02 05:32:00,
2013-06-02 01:42:00,75.0,65.0,29.91,SSW,209,12.0,15.0,71,-99.99,,,-99.99,,2013-06-02 05:42:00,
2013-06-02 01:52:00,75.0,65.0,29.91,SSW,209,12.0,15.0,71,-99.99,,,-99.99,,2013-06-02 05:52:00,
2013-06-02 02:00:00,74.0,65.0,29.88,SSW,196,7.0,14.0,73,-99.99,,,-99.99,,2013-06-02 06:00:00,
2013-06-02 02:22:00,74.0,65.0,29.88,SSW,196,7.0,14.0,73,-99.99,,,-99.99,,2013-06-02 06:22:00,
2013-06-02 02:32:00,74.0,65.0,29.88,SSW,196,7.0,14.0,73,-99.99,,,-99.99,,2013-06-02 06:32:00,
2013-06-02 02:42:00,74.0,65.0,29.88,SSW,196,7.0,14.0,73,-99.99,,,-99.99,,2013-06-02 06:42:00,
2013-06-02 02:52:00,74.0,65.0,29.88,SSW,196,7.0,14.0,73,-99.99,,,-99.99,,2013-06-02 06:52:00,
2013-06-02 03:00:00,72.0,64.0,29.88,South,183,7.0,12.0,78,-99.99,,,-99.99,,2013-06-02 07:00:00,
2013-06-02 03:22:00,72.0,64.0,29.88,South,183,7.0,12.0,78,-99.99,,,-99.99,,2013-06-02 07:22:00,
2013-06-02 03:32:00,72.0,64.0,29.88,South,183,7.0,12.0,78,-99.99,,,-99.99,,2013-06-02 07:32:00,
2013-06-02 03:42:00,72.0,64.0,29.88,South,183,7.0,12.0,78,-99.99,,,-99.99,,2013-06-02 07:42:00,
2013-06-02 03:52:00,72.0,64.0,29.88,South,183,7.0,12.0,78,-99.99,,,-99.99,,2013-06-02 07:52:00,
2013-06-02 04:00:00,72.0,64.0,29.85,SW,227,7.0,13.0,78,-99.99,,,-99.99,,2013-06-02 08:00:00,
2013-06-02 04:22:00,72.0,64.0,29.85,SW,227,7.0,13.0,78,-99.99,,,-99.99,,2013-06-02 08:22:00,
2013-06-02 04:32:00,72.0,64.0,29.85,SW,227,7.0,13.0,78,-99.99,,,-99.99,,2013-06-02 08:32:00,
2013-06-02 04:42:00,72.0,64.0,29.85,SW,227,7.0,13.0,78,-99.99,,,-99.99,,2013-06-02 08:42:00,
2013-06-02 04:52:00,72.0,64.0,29.85,SW,227,7.0,13.0,78,-99.99,,,-99.99,,2013-06-02 08:52:00,
2013-06-02 05:00:00,71.0,64.0,29.85,SSW,200,6.0,12.0,80,-99.99,,,-99.99,,2013-06-02 09:00:00,
2013-06-02 05:33:00,71.0,64.0,29.85,SSW,200,6.0,12.0,80,-99.99,,,-99.99,,2013-06-02 09:33:00,
2013-06-02 05:43:00,71.0,64.0,29.85,SSW,200,6.0,12.0,80,-99.99,,,-99.99,,2013-06-02 09:43:00,
2013-06-02 05:53:00,71.0,64.0,29.85,SSW,200,6.0,12.0,80,-99.99,,,-99.99,,2013-06-02 09:53:00,
2013-06-02 06:00:00,70.0,64.0,29.85,SW,215,8.0,14.0,80,-99.99,,,-99.99,,2013-06-02 10:00:00,
2013-06-02 06:33:00,70.0,64.0,29.85,SW,215,8.0,14.0,80,-99.99,,,-99.99,,2013-06-02 10:33:00,
2013-06-02 06:42:00,70.0,64.0,29.85,SW,215,8.0,14.0,80,-99.99,,,-99.99,,2013-06-02 10:42:00,
2013-06-02 06:52:00,70.0,64.0,29.85,SW,215,8.0,14.0,80,-99.99,,,-99.99,,2013-06-02 10:52:00,
2013-06-02 07:00:00,72.0,64.0,29.85,SW,219,10.0,17.0,77,-99.99,,,-99.99,,2013-06-02 11:00:00,
2013-06-02 07:32:00,72.0,64.0,29.85,SW,219,10.0,17.0,77,-99.99,,,-99.99,,2013-06-02 11:32:00,
2013-06-02 07:42:00,72.0,64.0,29.85,SW,219,10.0,17.0,77,-99.99,,,-99.99,,2013-06-02 11:42:00,
2013-06-02 07:52:00,72.0,64.0,29.85,SW,219,10.0,17.0,77,-99.99,,,-99.99,,2013-06-02 11:52:00,
2013-06-02 08:00:00,74.0,64.0,29.85,SW,236,13.0,19.0,73,-99.99,,,-99.99,,2013-06-02 12:00:00,
2013-06-02 08:32:00,74.0,64.0,29.85,SW,236,13.0,19.0,73,-99.99,,,-99.99,,2013-06-02 12:32:00,
2013-06-02 08:42:00,74.0,64.0,29.85,SW,236,13.0,19.0,73,-99.99,,,-99.99,,2013-06-02 12:42:00,
2013-06-02 08:53:00,74.0,64.0,29.85,SW,236,13.0,19.0,73,-99.99,,,-99.99,,2013-06-02 12:53:00,
2013-06-02 09:00:00,76.0,64.0,29.85,SW,217,15.0,21.0,66,-99.99,,,-99.99,,2013-06-02 13:00:00,
2013-06-02 09:22:00,76.0,64.0,29.85,SW,217,15.0,21.0,66,-99.99,,,-99.99,,2013-06-02 13:22:00,
2013-06-02 09:32:00,76.0,64.0,29.85,SW,217,15.0,21.0,66,-99.99,,,-99.99,,2013-06-02 13:32:00,
2013-06-02 09:42:00,76.0,64.0,29.85,SW,217,15.0,21.0,66,-99.99,,,-99.99,,2013-06-02 13:42:00,
2013-06-02 09:52:00,76.0,64.0,29.85,SW,217,15.0,21.0,66,-99.99,,,-99.99,,2013-06-02 13:52:00,
2013-06-02 10:00:00,78.0,64.0,29.85,West,262,11.0,18.0,64,-99.99,,,-99.99,,2013-06-02 14:00:00,
2013-06-02 10:22:00,78.0,64.0,29.85,West,262,11.0,18.0,64,-99.99,,,-99.99,,2013-06-02 14:22:00,
2013-06-02 10:32:00,78.0,64.0,29.85,West,262,11.0,18.0,64,-99.99,,,-99.99,,2013-06-02 14:32:00,
2013-06-02 10:42:00,78.0,64.0,29.85,West,262,11.0,18.0,64,-99.99,,,-99.99,,2013-06-02 14:42:00,
2013-06-02 10:52:00,78.0,64.0,29.85,West,262,11.0,18.0,64,-99.99,,,-99.99,,2013-06-02 14:52:00,
2013-06-02 11:00:00,79.0,64.0,29.85,SW,232,12.0,18.0,60,-99.99,,,-99.99,,2013-06-02 15:00:00,
2013-06-02 11:33:00,79.0,64.0,29.85,SW,232,12.0,18.0,60,-99.99,,,-99.99,,2013-06-02 15:33:00,
2013-06-02 11:43:00,79.0,64.0,29.85,SW,232,12.0,18.0,60,-99.99,,,-99.99,,2013-06-02 15:43:00,
2013-06-02 11:53:00,79.0,64.0,29.85,SW,232,12.0,18.0,60,-99.99,,,-99.99,,2013-06-02 15:53:00,
2013-06-02 12:00:00,81.0,64.0,29.85,SW,217,11.0,20.0,56,-99.99,,,-99.99,,2013-06-02 16:00:00,
2013-06-02 12:33:00,81.0,64.0,29.85,SW,217,11.0,20.0,56,-99.99,,,-99.99,,2013-06-02 16:33:00,
2013-06-02 12:42:00,81.0,64.0,29.85,SW,217,11.0,20.0,56,-99.99,,,-99.99,,2013-06-02 16:42:00,
2013-06-02 12:53:00,81.0,64.0,29.85,SW,217,11.0,20.0,56,-99.99,,,-99.99,,2013-06-02 16:53:00,
2013-06-02 13:00:00,81.0,65.0,29.85,WSW,254,15.0,20.0,57,-99.99,,,-99.99,,2013-06-02 17:00:00,
2013-06-02 13:23:00,81.0,65.0,29.85,WSW,254,15.0,20.0,57,-99.99,,,-99.99,,2013-06-02 17:23:00,
2013-06-02 13:33:00,81.0,65.0,29.85,WSW,254,15.0,20.0,57,-99.99,,,-99.99,,2013-06-02 17:33:00,
2013-06-02 13:42:00,81.0,65.0,29.85,WSW,254,15.0,20.0,57,-99.99,,,-99.99,,2013-06-02 17:42:00,
2013-06-02 13:52:00,81.0,65.0,29.85,WSW,254,15.0,20.0,57,-99.99,,,-99.99,,2013-06-02 17:52:00,
2013-06-02 14:00:00,82.0,65.0,29.83,SW,225,15.0,20.0,56,-99.99,,,-99.99,,2013-06-02 18:00:00,
2013-06-02 14:22:00,82.0,65.0,29.83,SW,225,15.0,20.0,56,-99.99,,,-99.99,,2013-06-02 18:22:00,
2013-06-02 14:32:00,82.0,65.0,29.83,SW,225,15.0,20.0,56,-99.99,,,-99.99,,2013-06-02 18:32:00,
2013-06-02 14:42:00,82.0,65.0,29.83,SW,225,15.0,20.0,56,-99.99,,,-99.99,,2013-06-02 18:42:00,
2013-06-02 14:52:00,82.0,65.0,29.83,SW,225,15.0,20.0,56,-99.99,,,-99.99,,2013-06-02 18:52:00,
2013-06-02 15:00:00,82.0,67.0,29.83,WSW,244,15.0,21.0,60,-99.99,,,-99.99,,2013-06-02 19:00:00,
2013-06-02 15:32:00,82.0,67.0,29.83,WSW,244,15.0,21.0,60,-99.99,,,-99.99,,2013-06-02 19:32:00,
2013-06-02 15:42:00,82.0,67.0,29.83,WSW,244,15.0,21.0,60,-99.99,,,-99.99,,2013-06-02 19:42:00,
2013-06-02 15:52:00,82.0,67.0,29.83,WSW,244,15.0,21.0,60,-99.99,,,-99.99,,2013-06-02 19:52:00,
2013-06-02 16:00:00,81.0,66.0,29.83,SW,214,11.0,27.0,62,-99.99,,,-99.99,,2013-06-02 20:00:00,
2013-06-02 16:32:00,81.0,66.0,29.83,SW,214,11.0,27.0,62,-99.99,,,-99.99,,2013-06-02 20:32:00,
2013-06-02 16:42:00,81.0,66.0,29.83,SW,214,11.0,27.0,62,-99.99,,,-99.99,,2013-06-02 20:42:00,
2013-06-02 16:52:00,81.0,66.0,29.83,SW,214,11.0,27.0,62,-99.99,,,-99.99,,2013-06-02 20:52:00,
2013-06-02 17:00:00,80.0,66.0,29.80,SW,216,11.0,22.0,62,-99.99,,,-99.99,,2013-06-02 21:00:00,
2013-06-02 17:22:00,80.0,66.0,29.80,SW,216,11.0,22.0,62,-99.99,,,-99.99,,2013-06-02 21:22:00,
2013-06-02 17:33:00,80.0,66.0,29.80,SW,216,11.0,22.0,62,-99.99,,,-99.99,,2013-06-02 21:33:00,
2013-06-02 17:43:00,80.0,66.0,29.80,SW,216,11.0,22.0,62,-99.99,,,-99.99,,2013-06-02 21:43:00,
2013-06-02 17:53:00,80.0,66.0,29.80,SW,216,11.0,22.0,62,-99.99,,,-99.99,,2013-06-02 21:53:00,
2013-06-02 18:00:00,79.0,65.0,29.80,WSW,243,9.0,22.0,61,-99.99,,,-99.99,,2013-06-02 22:00:00,
2013-06-02 18:23:00,79.0,65.0,29.80,WSW,243,9.0,22.0,61,-99.99,,,-99.99,,2013-06-02 22:23:00,
2013-06-02 18:33:00,79.0,65.0,29.80,WSW,243,9.0,22.0,61,-99.99,,,-99.99,,2013-06-02 22:33:00,
2013-06-02 18:42:00,79.0,65.0,29.80,WSW,243,9.0,22.0,61,-99.99,,,-99.99,,2013-06-02 22:42:00,
2013-06-02 18:53:00,79.0,65.0,29.80,WSW,243,9.0,22.0,61,-99.99,,,-99.99,,2013-06-02 22:53:00,
2013-06-02 19:00:00,79.0,64.0,29.80,WSW,255,7.0,21.0,59,-99.99,,,-99.99,,2013-06-02 23:00:00,
2013-06-02 19:22:00,79.0,64.0,29.80,WSW,255,7.0,21.0,59,-99.99,,,-99.99,,2013-06-02 23:22:00,
2013-06-02 19:32:00,79.0,64.0,29.80,WSW,255,7.0,21.0,59,-99.99,,,-99.99,,2013-06-02 23:32:00,
2013-06-02 19:43:00,79.0,64.0,29.80,WSW,255,7.0,21.0,59,-99.99,,,-99.99,,2013-06-02 23:43:00,
2013-06-02 19:53:00,79.0,64.0,29.80,WSW,255,7.0,21.0,59,-99.99,,,-99.99,,2013-06-02 23:53:00,
2013-06-02 20:00:00,77.0,65.0,29.80,SW,228,6.0,14.0,65,-99.99,,,-99.99,,2013-06-03 00:00:00,
2013-06-02 20:22:00,77.0,65.0,29.80,SW,228,6.0,14.0,65,-99.99,,,-99.99,,2013-06-03 00:22:00,
2013-06-02 20:32:00,77.0,65.0,29.80,SW,228,6.0,14.0,65,-99.99,,,-99.99,,2013-06-03 00:32:00,
2013-06-02 20:42:00,77.0,65.0,29.80,SW,228,6.0,14.0,65,-99.99,,,-99.99,,2013-06-03 00:42:00,
2013-06-02 20:52:00,77.0,65.0,29.80,SW,228,6.0,14.0,65,-99.99,,,-99.99,,2013-06-03 00:52:00,
2013-06-02 21:00:00,76.0,65.0,29.83,SW,221,6.0,21.0,69,-99.99,,,-99.99,,2013-06-03 01:00:00,
2013-06-02 21:21:00,76.0,65.0,29.83,SW,221,6.0,21.0,69,-99.99,,,-99.99,,2013-06-03 01:21:00,
2013-06-02 21:32:00,76.0,65.0,29.83,SW,221,6.0,21.0,69,-99.99,,,-99.99,,2013-06-03 01:32:00,
2013-06-02 21:42:00,76.0,65.0,29.83,SW,221,6.0,21.0,69,-99.99,,,-99.99,,2013-06-03 01:42:00,
2013-06-02 21:52:00,76.0,65.0,29.83,SW,221,6.0,21.0,69,-99.99,,,-99.99,,2013-06-03 01:52:00,
2013-06-02 22:00:00,72.0,66.0,29.83,SW,216,5.0,19.0,83,-99.99,,,-99.99,,2013-06-03 02:00:00,
2013-06-02 22:22:00,72.0,66.0,29.83,SW,216,5.0,19.0,83,-99.99,,,-99.99,,2013-06-03 02:22:00,
2013-06-02 22:32:00,72.0,66.0,29.83,SW,216,5.0,19.0,83,-99.99,,,-99.99,,2013-06-03 02:32:00,
2013-06-02 22:42:00,72.0,66.0,29.83,SW,216,5.0,19.0,83,-99.99,,,-99.99,,2013-06-03 02:42:00,
2013-06-02 22:52:00,72.0,66.0,29.83,SW,216,5.0,19.0,83,-99.99,,,-99.99,,2013-06-03 02:52:00,
2013-06-02 23:00:00,72.0,67.0,29.83,SW,225,7.0,10.0,82,-99.99,,,-99.99,,2013-06-03 03:00:00,
2013-06-02 23:22:00,72.0,67.0,29.83,SW,225,7.0,10.0,82,-99.99,,,-99.99,,2013-06-03 03:22:00,
2013-06-02 23:33:00,72.0,67.0,29.83,SW,225,7.0,10.0,82,-99.99,,,-99.99,,2013-06-03 03:33:00,
2013-06-02 23:43:00,72.0,67.0,29.83,SW,225,7.0,10.0,82,-99.99,,,-99.99,,2013-06-03 03:43:00,
2013-06-02 23:53:00,72.0,67.0,29.83,SW,225,7.0,10.0,82,-99.99,,,-99.99,,2013-06-03 03:53:00,